Wayne, NE

4:07 AM CDT on July 25, 2017 (GMT -0500)
Wayne Municipal

Weather History for KLCG - June, 2013

Change the Weather History Date:

Sunday, June 9, 2013

  Actual Average (KOFK) Record (KOFK)
Temperature  
Mean Temperature 60 °F -  
Max Temperature 65 °F 79 °F 102 °F (1933)
Min Temperature 56 °F 56 °F 40 °F (1989)
Degree Days  
Heating Degree Days 4    
Growing Degree Days 10 (Base 50)    
Moisture  
Dew Point 58 °F    
Average Humidity 91    
Maximum Humidity 100    
Minimum Humidity 77    
Precipitation  
Precipitation 0.01 in - - ()
Sea Level Pressure  
Sea Level Pressure 29.75 in    
Wind  
Wind Speed 15 mph (NW)    
Max Wind Speed 24 mph    
Max Gust Speed 34 mph    
Visibility 10 miles    
Events Rain    
Averages and records for this station are not official NWS values.
T = Trace of Precipitation, MM = Missing Value Source: NWS Daily Summary

Daily Weather History Graph

Daily Weather History Graph

Search for Another Location

Airport or City:

Trip Planner

Search our weather history database for the weather conditions in past years. The results will help you decide how hot, cold, wet, or windy it might be!

Date:

Astronomy

Jun. 09, 2013 Rise Set
Actual Time 5:51 AM CDT 9:03 PM CDT
Civil Twilight 5:16 AM CDT 9:37 PM CDT
Nautical Twilight 4:32 AM CDT 10:22 PM CDT
Astronomical Twilight 3:39 AM CDT 11:15 PM CDT
Moon 6:50 AM CDT (6/9) 9:49 PM CDT (6/9)
Length of Visible Light 16h 20m
Length of Day
15h 12m
New Moon, 1% of the Moon is Illuminated
Jun 9
New Moon
Jun 16
First Quarter
Jun 23
Full
Jun 29
Last Quarter
Jul 8
New

Hourly Weather History & Observations

Time (CDT) Temp. Dew Point Humidity Pressure Visibility Wind Dir Wind Speed Gust Speed Precip Events Conditions
12:15 AM 60.3 °F 60.3 °F 100% 29.66 in 7.0 mi WNW 15.0 mph 18.4 mph N/A Rain Rain
12:35 AM 60.1 °F 60.1 °F 100% 29.67 in 5.0 mi West 9.2 mph - N/A Rain Light Rain
12:55 AM 59.9 °F 59.9 °F 100% 29.67 in 10.0 mi West 10.4 mph - N/A   Overcast
1:15 AM 60.1 °F 59.9 °F 99% 29.67 in 10.0 mi West 10.4 mph - N/A   Overcast
1:35 AM 60.4 °F 60.3 °F 99% 29.66 in 10.0 mi West 10.4 mph - N/A   Overcast
1:55 AM 60.8 °F 60.3 °F 98% 29.66 in 10.0 mi WSW 12.7 mph - N/A   Overcast
2:15 AM 61.0 °F 60.1 °F 97% 29.66 in 10.0 mi West 15.0 mph 18.4 mph N/A   Overcast
2:35 AM 60.8 °F 59.7 °F 96% 29.66 in 10.0 mi West 13.8 mph 19.6 mph N/A   Overcast
2:55 AM 60.6 °F 59.2 °F 95% 29.66 in 10.0 mi West 15.0 mph 18.4 mph N/A   Overcast
3:15 AM 60.4 °F 59.0 °F 95% 29.66 in 10.0 mi West 13.8 mph 20.7 mph N/A   Overcast
3:35 AM 60.3 °F 59.0 °F 96% 29.66 in 10.0 mi West 16.1 mph 21.9 mph N/A   Overcast
3:55 AM 59.9 °F 58.5 °F 95% 29.66 in 10.0 mi West 16.1 mph 23.0 mph N/A   Overcast
4:15 AM 59.9 °F 58.3 °F 94% 29.66 in 10.0 mi West 15.0 mph - N/A   Overcast
4:35 AM 59.5 °F 58.5 °F 96% 29.66 in 10.0 mi West 17.3 mph 23.0 mph N/A   Overcast
4:55 AM 59.4 °F 58.6 °F 97% 29.66 in 10.0 mi West 16.1 mph 20.7 mph N/A   Overcast
5:15 AM 59.4 °F 58.5 °F 97% 29.66 in 10.0 mi West 12.7 mph 21.9 mph N/A   Overcast
5:35 AM 59.0 °F 58.3 °F 97% 29.67 in 10.0 mi West 13.8 mph 18.4 mph N/A   Overcast
5:55 AM 59.2 °F 58.1 °F 96% 29.67 in 10.0 mi WNW 15.0 mph 23.0 mph N/A   Light Drizzle
6:15 AM 59.0 °F 57.7 °F 96% 29.68 in 10.0 mi WNW 13.8 mph 23.0 mph N/A   Overcast
6:35 AM 59.0 °F 57.9 °F 96% 29.69 in 10.0 mi WNW 17.3 mph 23.0 mph N/A   Overcast
6:55 AM 59.2 °F 57.9 °F 96% 29.69 in 10.0 mi West 16.1 mph - N/A   Overcast
7:15 AM 59.4 °F 57.9 °F 95% 29.69 in 10.0 mi West 13.8 mph 21.9 mph N/A   Overcast
7:35 AM 59.2 °F 57.9 °F 96% 29.69 in 10.0 mi WNW 16.1 mph 24.2 mph N/A Rain Light Rain
7:55 AM 59.4 °F 58.1 °F 96% 29.70 in 10.0 mi WNW 18.4 mph 24.2 mph N/A   Overcast
8:15 AM 59.2 °F 58.1 °F 96% 29.69 in 10.0 mi WNW 13.8 mph 25.3 mph N/A   Overcast
8:35 AM 59.0 °F 58.1 °F 97% 29.70 in 7.0 mi WNW 19.6 mph 28.8 mph N/A Rain Light Rain
8:55 AM 59.0 °F 58.5 °F 98% 29.70 in 10.0 mi WNW 18.4 mph 26.5 mph N/A   Light Drizzle
9:15 AM 59.5 °F 58.5 °F 96% 29.71 in 10.0 mi WNW 20.7 mph 27.6 mph N/A   Overcast
9:35 AM 60.3 °F 58.5 °F 94% 29.71 in 10.0 mi WNW 18.4 mph 25.3 mph N/A   Overcast
9:55 AM 59.9 °F 58.1 °F 94% 29.72 in 10.0 mi WNW 18.4 mph 28.8 mph N/A   Overcast
10:15 AM 59.7 °F 57.7 °F 93% 29.72 in 10.0 mi NW 20.7 mph 27.6 mph N/A   Overcast
10:35 AM 59.0 °F 58.1 °F 97% 29.73 in 5.0 mi WNW 20.7 mph 28.8 mph N/A Rain Light Rain
10:55 AM 59.0 °F 58.1 °F 97% 29.73 in 7.0 mi NW 18.4 mph 24.2 mph 0.01 in Rain Light Rain
11:15 AM 59.4 °F 58.1 °F 96% 29.74 in 10.0 mi NW 18.4 mph 26.5 mph N/A   Overcast
11:35 AM 59.9 °F 58.3 °F 94% 29.74 in 10.0 mi NW 19.6 mph 25.3 mph N/A   Overcast
11:55 AM 60.4 °F 58.3 °F 93% 29.75 in 10.0 mi NW 19.6 mph 25.3 mph N/A   Overcast
12:15 PM 61.3 °F 58.3 °F 90% 29.75 in 10.0 mi NW 20.7 mph 28.8 mph N/A   Overcast
12:35 PM 61.7 °F 58.1 °F 88% 29.76 in 10.0 mi NW 20.7 mph 27.6 mph N/A   Overcast
12:55 PM 62.2 °F 58.1 °F 86% 29.76 in 10.0 mi NW 20.7 mph 28.8 mph N/A   Overcast
1:15 PM 63.5 °F 58.5 °F 84% 29.76 in 10.0 mi NW 20.7 mph 31.1 mph N/A   Overcast
1:35 PM 64.0 °F 59.0 °F 84% 29.77 in 10.0 mi NW 19.6 mph 27.6 mph N/A   Overcast
1:55 PM 63.0 °F 58.1 °F 84% 29.78 in 10.0 mi NW 19.6 mph 27.6 mph N/A   Overcast
2:15 PM 63.3 °F 58.3 °F 84% 29.78 in 10.0 mi NW 19.6 mph 27.6 mph N/A   Overcast
2:35 PM 63.7 °F 58.1 °F 82% 29.78 in 10.0 mi NW 24.2 mph 34.5 mph N/A   Overcast
2:55 PM 63.7 °F 57.9 °F 81% 29.78 in 10.0 mi NW 24.2 mph 33.4 mph N/A   Overcast
3:15 PM 64.4 °F 58.3 °F 80% 29.79 in 10.0 mi NW 20.7 mph 29.9 mph N/A   Overcast
3:35 PM 64.0 °F 57.7 °F 80% 29.79 in 10.0 mi NNW 19.6 mph 28.8 mph N/A   Overcast
3:55 PM 64.4 °F 58.1 °F 80% 29.79 in 10.0 mi NW 21.9 mph 27.6 mph N/A   Overcast
4:15 PM 64.6 °F 58.1 °F 79% 29.79 in 10.0 mi NNW 19.6 mph 27.6 mph N/A   Overcast
4:35 PM 65.3 °F 58.5 °F 78% 29.79 in 10.0 mi NW 20.7 mph 26.5 mph N/A   Overcast
4:55 PM 65.5 °F 57.9 °F 77% 29.79 in 10.0 mi NNW 23.0 mph 28.8 mph N/A   Overcast
5:15 PM 65.3 °F 58.5 °F 78% 29.79 in 10.0 mi NW 20.7 mph 26.5 mph N/A   Overcast
5:35 PM 64.4 °F 58.1 °F 80% 29.80 in 10.0 mi NNW 20.7 mph 28.8 mph N/A   Overcast
5:55 PM 64.8 °F 58.3 °F 79% 29.80 in 10.0 mi NW 16.1 mph 25.3 mph N/A   Overcast
6:15 PM 64.6 °F 58.3 °F 80% 29.80 in 10.0 mi NW 15.0 mph 23.0 mph N/A   Overcast
6:35 PM 64.8 °F 58.8 °F 81% 29.81 in 10.0 mi NNW 16.1 mph 19.6 mph N/A   Overcast
6:55 PM 64.8 °F 59.2 °F 82% 29.81 in 10.0 mi NNW 17.3 mph - N/A   Overcast
7:15 PM 64.6 °F 59.0 °F 82% 29.82 in 10.0 mi NNW 11.5 mph - N/A   Overcast
7:35 PM 64.6 °F 59.2 °F 83% 29.82 in 10.0 mi NNW 9.2 mph - N/A   Overcast
7:55 PM 64.9 °F 59.4 °F 82% 29.82 in 10.0 mi NNW 10.4 mph - N/A   Overcast
8:15 PM 65.5 °F 59.4 °F 81% 29.83 in 10.0 mi NNW 11.5 mph 17.3 mph N/A   Overcast
8:35 PM 64.8 °F 59.4 °F 83% 29.83 in 10.0 mi NNW 10.4 mph 17.3 mph N/A   Mostly Cloudy
8:55 PM 63.9 °F 59.0 °F 84% 29.84 in 10.0 mi NNW 9.2 mph - N/A   Mostly Cloudy
9:15 PM 62.4 °F 59.0 °F 89% 29.84 in 10.0 mi NNW 9.2 mph - N/A   Scattered Clouds
9:35 PM 61.3 °F 58.3 °F 90% 29.85 in 10.0 mi North 5.8 mph - N/A   Scattered Clouds
9:55 PM 60.4 °F 58.1 °F 92% 29.86 in 10.0 mi North 5.8 mph - N/A   Scattered Clouds
10:15 PM 59.7 °F 57.4 °F 92% 29.86 in 10.0 mi North 5.8 mph - N/A   Scattered Clouds
10:35 PM 58.5 °F 56.8 °F 94% 29.86 in 10.0 mi NNW 5.8 mph - N/A   Clear
10:55 PM 57.6 °F 56.3 °F 96% 29.87 in 10.0 mi Calm Calm - N/A   Clear
11:15 PM 56.8 °F 55.6 °F 96% 29.87 in 10.0 mi NW 5.8 mph - N/A   Clear
11:35 PM 56.7 °F 56.3 °F 99% 29.87 in 10.0 mi NW 5.8 mph - N/A   Clear
11:55 PM 56.3 °F 55.6 °F 97% 29.86 in 10.0 mi NW 3.5 mph - N/A   Clear